CAPE
7 338 574 378 197 42 17 0 0 0 0 0 0 0 0 0 0 0 0 0 0 0 0 0 0 0 0 0 0 0 0 0 0 0 0 0 0 0 0 0 0 0 0
0 0 414 491 276 138 30 0 0 0 0 0 0 0 0 0 0 0 0 0 0 0 0 0 0 0 0 0 0 0 0 0 0 0 0 0 0 0 0 0 0 0 0
0 0 1 407 402 165 35 2 0 0 0 0 0 0 0 0 0 0 0 0 0 0 0 0 0 0 0 0 0 0 0 0 0 0 0 0 0 0 0 0 0 0 0
0 0 0 0 300 325 7 0 0 0 0 0 0 0 0 0 0 0 0 0 0 0 0 0 0 0 0 0 0 0 0 0 0 0 0 0 0 0 0 0 0 0 0
0 0 0 0 0 41 31 0 0 0 0 0 0 0 0 0 0 0 0 0 0 0 0 0 0 0 0 0 0 0 0 0 0 0 0 0 0 0 0 0 0 0 0
0 0 0 0 0 0 0 0 0 0 0 0 0 0 0 0 0 0 0 0 0 0 0 0 0 0 0 0 0 0 0 0 0 0 0 0 0 0 0 0 0 0 0
0 0 0 0 0 0 0 0 0 0 0 0 0 0 0 0 0 0 0 0 0 0 0 0 0 0 0 0 0 0 0 0 0 0 0 0 0 0 0 0 0 0 0
0 0 0 0 0 0 0 0 0 0 0 0 0 0 0 0 0 0 0 0 0 0 0 0 0 0 0 0 0 0 0 0 0 0 0 0 0 0 0 0 0 0 0
0 0 0 0 0 0 0 0 0 0 0 0 0 0 0 0 0 0 0 0 0 0 0 0 0 0 0 0 0 0 0 0 0 0 0 0 0 0 0 0 0 0 0
0 0 0 0 0 0 0 0 0 0 0 0 0 0 0 0 0 0 0 0 0 0 0 0 0 0 0 0 0 0 0 0 0 0 0 0 0 0 0 0 0 0 0
0 0 0 0 0 0 0 0 0 0 0 0 0 0 0 0 0 0 0 0 0 0 0 0 0 0 0 0 0 0 0 0 0 0 0 0 0 0 0 0 0 0 0
0 0 0 0 0 0 0 0 0 0 0 0 0 0 0 0 0 0 0 0 0 0 0 0 0 0 0 0 0 0 0 0 0 0 0 0 0 0 0 0 0 0 0
0 0 0 0 0 0 0 0 0 0 0 0 0 0 0 0 0 0 0 0 0 0 0 0 0 0 0 0 0 0 0 0 0 0 0 0 0 0 0 0 0 0 0
0 0 0 0 0 0 0 0 0 0 0 0 0 0 0 0 0 0 0 0 0 0 0 0 0 0 0 0 0 0 0 0 0 0 0 0 0 0 0 0 0 0 0
0 0 0 0 0 0 0 0 0 0 0 0 0 0 0 0 0 0 0 0 0 0 0 0 0 0 0 0 0 0 0 0 0 0 0 0 0 0 0 0 0 0 0
0 0 0 0 0 0 0 0 0 0 0 0 0 0 0 0 0 0 0 0 0 0 0 0 0 0 0 0 0 0 0 0 0 0 0 0 0 0 0 0 0 0 0
0 0 0 0 0 0 0 0 0 0 0 0 0 0 0 0 0 0 0 0 0 0 0 0 0 0 0 0 0 0 0 0 0 0 0 0 0 0 0 0 0 0 0
0 0 0 0 0 0 0 0 0 0 0 0 0 0 0 0 0 0 0 0 0 0 0 0 0 0 0 0 0 0 0 0 0 0 0 0 0 0 0 0 0 0 0
0 0 0 0 0 0 0 0 0 0 0 0 0 0 0 0 0 0 0 0 0 0 0 0 0 0 0 0 0 0 0 0 0 0 0 0 0 0 0 0 0 0 0
0 0 0 0 0 0 0 0 0 0 0 0 0 0 0 0 0 0 0 0 0 0 0 0 0 0 0 0 0 0 0 0 0 0 0 0 0 0 2 5 3 0 0
0 0 0 0 0 0 0 0 0 0 0 0 0 0 0 0 0 0 0 0 0 0 0 0 0 0 0 0 0 0 0 0 0 0 0 0 0 0 10 10 4 1 7
0 0 0 0 0 0 0 0 0 0 0 0 0 0 0 0 0 0 0 0 0 0 0 0 0 0 0 0 0 0 0 0 0 0 0 0 0 4 3 3 0 1 1
0 0 0 0 0 0 0 0 0 0 0 0 0 0 0 0 0 0 0 0 0 0 0 0 0 0 0 0 0 0 0 0 0 0 0 2 2 0 0 0 0 0 0
0 0 0 0 0 0 0 0 0 0 0 0 0 0 0 0 0 0 0 0 0 0 0 0 0 0 0 0 0 0 0 0 0 0 0 0 2 0 0 0 0 0 0
0 0 0 0 0 0 0 0 0 0 0 0 0 0 0 0 0 0 0 0 0 0 0 0 0 0 0 0 1 3 1 1 1 4 1 0 0 0 0 0 0 0 0
0 0 0 0 0 0 0 0 0 0 0 0 0 0 0 0 0 0 0 0 0 0 0 0 1 0 0 0 0 3 2 2 5 3 0 0 0 0 0 0 0 0 0
CIN
-181 -153 -131 -183 -212 -298 -340 -1 0 0 0 0 0 0 0 0 0 0 0 0 0 0 0 0 0 0 0 0 0 0 0 0 0 0 0 0 0 0 0 0 0 0 0
0 0 -157 -159 -204 -258 -357 -1 0 0 0 0 0 0 0 0 0 0 0 0 0 0 0 0 0 0 0 0 0 0 0 0 0 0 0 0 0 0 0 0 0 0 0
0 0 -87 -190 -190 -257 -391 -512 0 0 0 0 0 0 0 0 0 0 0 0 0 0 0 0 0 0 0 0 0 0 0 0 0 0 0 0 0 0 0 0 0 0 0
0 0 0 -61 -207 -234 -473 0 0 0 0 0 0 0 0 0 0 0 0 0 0 0 0 0 0 0 0 0 0 0 0 0 0 0 0 0 0 0 0 0 0 0 0
0 0 0 0 0 -384 -402 0 0 0 0 0 0 0 0 0 0 0 0 0 0 0 0 0 0 0 0 0 0 0 0 0 0 0 0 0 0 0 0 0 0 0 0
0 0 0 0 0 0 0 0 0 0 0 0 0 0 0 0 0 0 0 0 0 0 0 0 0 0 0 0 0 0 0 0 0 0 0 0 0 0 0 0 0 0 0
0 0 0 0 0 0 0 0 0 0 0 0 0 0 0 0 0 0 0 0 0 0 0 0 0 0 0 0 0 0 0 0 0 0 0 0 0 0 0 0 0 0 0
0 0 0 0 0 0 0 0 0 0 0 0 0 0 0 0 0 0 0 0 0 0 0 0 0 0 0 0 0 0 0 0 0 0 0 0 0 0 0 0 0 0 0
0 0 0 0 0 0 0 0 0 0 0 0 0 0 0 0 0 0 0 0 0 0 0 0 0 0 0 0 0 0 0 0 0 0 0 0 0 0 0 0 0 0 0
0 0 0 0 0 0 0 0 0 0 0 0 0 0 0 0 0 0 0 0 0 0 0 0 0 0 0 0 0 0 0 0 0 0 0 0 0 0 0 0 0 0 0
0 0 0 0 0 0 0 0 0 0 0 0 0 0 0 0 0 0 0 0 0 0 0 0 0 0 0 0 0 0 0 0 0 0 0 0 0 0 0 0 0 0 0
0 0 0 0 0 0 0 0 0 0 0 0 0 0 0 0 0 0 0 0 0 0 0 0 0 0 0 0 0 0 0 0 0 0 0 0 0 0 0 0 0 0 0
0 0 0 0 0 0 0 0 0 0 0 0 0 0 0 0 0 0 0 0 0 0 0 0 0 0 0 0 0 0 0 0 0 0 0 0 0 0 0 0 0 0 0
0 0 0 0 0 0 0 0 0 0 0 0 0 0 0 0 0 0 0 0 0 0 0 0 0 0 0 0 0 0 0 0 0 0 0 0 0 0 0 0 0 0 0
0 0 0 0 0 0 0 0 0 0 0 0 0 0 0 0 0 0 0 0 0 0 0 0 0 0 0 0 0 0 0 0 0 0 0 0 0 0 0 0 0 0 0
0 0 0 0 0 0 0 0 0 0 0 0 0 0 0 0 0 0 0 0 0 0 0 0 0 0 0 0 0 0 0 0 0 0 0 0 0 0 0 0 0 0 0
0 0 0 0 0 0 0 0 0 0 0 0 0 0 0 0 0 0 0 0 0 0 0 0 0 0 0 0 0 0 0 0 0 0 0 0 0 0 0 0 0 0 0
0 0 0 0 0 0 0 0 0 0 0 0 0 0 0 0 0 0 0 0 0 0 0 0 0 0 0 0 0 0 0 0 0 0 0 0 0 0 0 0 0 0 0
0 0 0 0 0 0 0 0 0 0 0 0 0 0 0 0 0 0 0 0 0 0 0 0 0 0 0 0 0 0 0 0 0 0 0 0 0 0 0 0 0 0 0
0 0 0 0 0 0 0 0 0 0 0 0 0 0 0 0 0 0 0 0 0 0 0 0 0 0 0 0 0 0 0 0 0 0 0 0 0 0 -1 0 -2 -2 0
0 0 0 0 0 0 0 0 0 0 0 0 0 0 0 0 0 0 0 0 0 0 0 0 0 0 0 0 0 0 0 0 0 0 0 0 0 0 0 -1 -1 0 -1
0 0 0 0 0 0 0 0 0 0 0 0 0 0 0 0 0 0 0 0 0 0 0 0 0 0 0 0 0 0 0 0 -1 0 0 0 0 -1 0 -1 0 0 0
0 0 0 0 0 0 0 0 0 0 0 0 0 0 0 0 0 0 0 0 0 0 0 0 0 0 0 0 0 0 0 0 0 0 0 -1 -1 0 0 0 0 0 0
0 0 0 0 0 0 0 0 0 0 0 0 0 0 0 0 0 0 0 0 0 0 0 0 0 0 0 0 0 0 0 0 0 0 0 0 -2 0 0 0 0 0 0
0 0 0 0 0 0 0 0 0 0 0 0 0 0 0 0 0 0 0 0 0 0 0 0 0 0 0 0 0 0 0 -2 -1 -1 -4 0 0 0 0 0 0 0 0
0 0 0 0 0 0 0 0 0 0 0 0 0 0 0 0 0 0 0 0 0 0 0 0 0 0 0 0 0 -1 -1 -1 -1 -2 0 0 0 0 0 0 -1 -1 0
Wind_Speed
28 24 25 20 19 22 16 18 14 13 13 13 13 12 11 9 10 9 9 10 11 12 13 13 14 15 17 18 18 18 21 23 19 18 18 18 18 18 18 18 19 21 26
34 27 26 23 20 19 19 17 15 15 13 12 13 14 11 12 12 9 9 9 10 11 12 12 13 14 15 17 18 19 19 21 23 20 19 19 17 18 19 19 20 22 24
40 33 29 26 23 24 20 18 17 15 15 15 12 11 11 12 13 11 10 9 10 10 11 11 12 13 14 16 17 19 19 19 21 23 20 20 21 21 18 19 20 23 23
41 37 33 27 28 24 26 21 19 17 16 14 14 12 13 13 15 10 9 9 9 9 10 11 12 13 13 15 17 18 19 19 20 20 22 21 21 22 22 19 19 25 23
37 40 34 29 26 27 25 24 21 19 18 16 15 14 14 15 12 11 8 8 9 9 10 10 11 12 13 14 16 17 18 19 20 21 21 21 22 21 22 23 23 24 22
42 37 36 33 31 29 25 24 22 20 18 17 16 15 14 13 11 11 9 9 9 9 9 10 11 11 12 14 15 17 18 19 20 21 21 22 23 24 24 24 25 25 23
44 40 37 33 31 23 27 25 23 20 17 16 15 13 13 12 11 10 9 9 9 10 9 9 10 11 12 13 15 17 18 20 21 21 22 22 22 23 24 25 26 26 25
44 44 41 35 33 30 29 27 23 22 18 16 15 14 12 13 12 10 9 9 10 9 8 9 10 11 13 14 15 17 19 20 21 22 22 23 23 23 24 26 28 31 28
41 42 39 37 32 29 26 25 25 22 19 16 15 13 12 12 11 10 8 9 8 8 8 9 11 12 13 15 16 19 20 21 22 22 23 23 24 24 25 26 26 29 33
34 35 36 34 32 28 25 23 22 20 17 13 13 13 13 12 10 9 9 9 8 8 9 10 12 14 15 16 18 20 21 21 22 22 23 24 25 25 26 27 27 27 30
29 30 30 29 28 26 24 23 21 19 18 16 15 12 12 11 10 9 8 8 8 9 10 11 12 14 16 17 19 20 21 21 22 23 23 25 26 27 27 28 28 29 30
23 24 24 24 24 23 23 23 21 19 17 16 14 13 11 9 8 8 7 7 8 9 10 11 13 15 17 18 19 19 20 21 22 23 25 26 27 28 29 30 31 32 32
19 18 18 19 20 20 21 21 20 18 17 15 13 12 10 9 7 6 6 6 7 9 10 12 14 15 16 17 19 20 21 22 24 25 27 29 30 31 32 32 33 34 34
15 17 16 15 17 19 19 18 18 17 15 14 13 11 10 8 6 5 5 6 7 9 11 12 13 15 17 18 20 21 23 24 26 27 29 30 31 33 34 34 34 35 37
16 15 16 14 14 17 18 18 16 15 14 12 11 10 8 6 5 4 4 6 8 9 11 12 15 16 19 20 22 23 25 27 28 29 30 31 32 33 33 34 36 37 38
11 13 15 15 13 13 13 14 14 12 11 10 9 7 6 4 4 5 4 6 8 10 12 14 16 18 21 23 24 25 27 28 30 31 32 32 33 34 35 35 36 37 39
12 11 14 18 15 15 13 14 13 12 10 10 9 8 6 2 0 2 5 7 9 11 14 16 19 21 23 25 27 27 28 29 30 31 33 34 34 35 36 36 37 36 35
15 13 12 15 13 10 11 12 11 11 10 9 7 5 3 1 2 4 6 9 11 14 17 19 21 23 25 27 28 28 29 29 30 31 33 35 36 36 37 37 37 36 35
14 15 13 13 12 11 12 12 12 10 9 8 5 3 3 1 3 7 9 12 14 17 20 22 24 26 27 28 28 28 29 30 32 33 33 34 35 36 36 36 37 37 36
14 15 15 13 12 12 12 12 11 10 8 7 5 4 4 4 6 9 12 15 17 19 22 24 26 27 27 27 28 29 30 33 33 33 33 34 34 35 34 36 36 38 38
13 15 15 15 14 13 13 12 11 10 7 4 3 1 3 6 8 12 14 17 20 22 24 26 27 26 26 28 29 30 31 33 34 34 35 34 34 34 34 35 34 35 36
14 15 15 14 13 12 13 11 10 7 5 3 2 3 6 9 12 14 17 20 22 25 27 28 28 27 27 29 30 32 32 32 33 35 34 34 34 35 34 33 33 33 33
15 14 15 14 13 12 11 11 9 6 4 3 5 7 9 12 15 18 21 24 25 26 28 28 28 29 29 29 31 31 31 32 34 33 33 34 33 33 32 32 31 32 30
12 14 15 13 13 11 10 9 7 5 4 6 8 10 13 17 19 21 23 25 26 26 26 27 28 29 30 30 31 31 32 32 32 33 32 32 31 31 32 31 29 29 29
11 12 13 12 11 10 8 7 5 4 7 8 11 14 17 19 21 23 24 24 24 23 25 26 27 29 31 31 31 32 32 32 32 33 31 31 31 32 30 30 30 29 29
10 10 10 10 9 7 6 4 5 6 8 11 14 17 19 21 22 23 24 22 22 23 25 26 27 27 29 31 31 31 31 31 32 31 31 32 32 31 30 30 30 29 30
Wind_Direction
258 257 251 250 248 246 235 236 231 235 236 246 253 260 267 280 293 307 331 350 2 10 15 21 29 28 24 27 27 25 18 14 24 23 21 23 23 19 18 17 14 10 0
253 259 254 249 246 243 240 233 228 232 231 240 254 265 265 277 286 301 320 339 355 5 9 16 23 26 22 22 20 19 18 16 12 13 13 8 13 13 12 9 6 1 358
249 254 254 249 247 246 239 234 230 224 233 242 250 268 272 278 283 292 309 329 347 358 4 10 19 22 18 16 15 13 14 13 12 11 8 1 358 360 6 4 2 359 357
247 249 249 250 250 249 246 240 234 230 233 233 244 246 259 266 277 285 304 323 339 350 359 5 12 15 14 11 7 9 11 10 6 7 4 4 359 351 349 357 356 352 354
250 246 253 251 254 250 245 241 236 234 234 235 243 252 262 272 280 284 296 316 330 342 351 359 6 8 7 3 3 6 5 4 1 0 358 355 354 354 348 342 345 347 349
252 251 252 250 255 250 246 240 234 233 234 236 244 252 259 266 272 278 286 301 319 330 340 350 356 1 360 358 359 359 360 358 358 356 353 350 346 342 342 338 339 339 341
252 252 251 248 243 244 245 239 233 232 231 234 244 253 262 266 268 270 280 291 304 315 328 341 347 349 350 352 353 353 352 351 350 350 348 347 344 342 339 336 334 333 335
255 253 252 251 248 243 243 239 231 232 228 234 246 258 265 269 273 276 281 291 301 313 325 334 339 342 344 347 347 347 345 346 345 345 344 343 341 339 337 333 330 327 328
258 256 254 251 247 242 236 232 234 230 234 238 248 256 263 266 270 277 286 295 308 318 325 329 334 337 339 340 341 339 339 340 341 341 341 340 339 337 334 332 330 327 322
261 260 255 251 248 243 238 231 226 225 227 231 245 254 261 266 268 275 282 293 307 317 322 326 329 332 333 335 336 337 338 339 340 340 340 339 338 336 334 332 330 327 322
265 262 256 251 246 240 233 226 225 227 232 239 249 253 260 260 265 272 283 294 306 314 320 325 328 331 333 335 337 338 339 340 340 341 340 338 337 335 334 333 330 327 323
269 263 256 248 242 235 231 228 228 228 235 242 247 253 254 255 260 271 284 297 309 319 325 329 332 333 335 337 339 340 342 342 341 340 338 336 336 334 333 330 327 325 324
271 263 253 244 238 234 230 229 230 232 237 239 241 244 246 247 256 269 287 305 318 326 332 333 334 337 340 343 344 343 342 340 338 336 334 332 332 330 329 328 326 324 323
277 260 251 240 236 234 231 230 232 235 236 237 236 235 237 240 250 269 295 315 328 334 335 338 341 342 342 341 340 339 337 336 335 333 333 331 330 328 327 326 325 324 322
269 259 243 233 230 230 231 234 233 232 229 226 225 225 227 236 253 277 308 321 334 340 339 342 341 339 339 338 337 336 334 332 332 332 331 331 330 329 328 326 324 323 321
252 251 240 233 219 212 219 222 223 218 213 211 210 207 206 215 261 280 317 345 336 341 336 338 337 336 336 336 335 333 332 332 331 330 331 331 331 330 328 326 325 323 321
231 236 235 233 229 225 220 219 216 213 203 197 206 212 213 208 70 335 334 332 333 336 335 334 334 332 332 332 332 332 331 331 332 331 330 330 330 328 327 326 325 325 325
239 227 218 224 225 210 210 208 205 202 194 190 181 164 151 226 294 320 325 326 332 330 329 330 330 330 330 331 330 331 332 331 332 331 330 329 329 329 328 327 326 326 326
226 225 211 220 219 204 193 190 189 187 187 190 189 208 235 267 300 313 324 325 325 326 326 327 327 327 328 330 331 331 332 331 330 330 331 330 329 329 330 328 327 327 327
225 214 210 200 203 184 182 180 183 190 199 201 216 238 267 290 311 317 320 322 324 324 325 325 327 328 328 331 332 332 331 329 329 330 330 331 330 330 331 328 328 327 327
214 207 202 202 191 189 177 183 193 201 198 202 220 264 308 315 319 321 323 323 323 324 325 325 327 328 330 331 330 330 330 328 328 328 329 331 332 331 331 330 329 329 330
203 192 190 194 195 192 188 192 189 185 186 191 234 302 314 316 319 323 323 324 323 321 322 324 325 328 330 330 329 329 329 330 328 328 329 330 330 330 331 331 331 331 331
210 202 184 188 195 192 188 194 198 192 204 241 283 303 313 317 320 321 319 319 321 321 321 323 324 326 328 330 329 330 331 331 330 331 331 331 331 332 332 332 331 331 332
198 192 188 186 193 200 200 195 196 211 240 271 289 304 309 312 316 318 320 320 319 320 321 323 324 326 327 328 331 331 331 332 332 332 333 333 333 333 332 332 332 332 332
177 179 183 188 193 195 200 200 213 234 269 289 299 304 308 312 315 318 319 320 322 322 322 323 324 325 326 329 331 331 333 334 334 333 335 334 334 333 333 334 334 334 333
177 176 175 170 171 171 182 217 255 275 287 297 304 308 311 313 315 317 319 324 324 325 323 323 324 326 328 329 330 332 333 335 335 336 335 334 334 333 333 333 333 334 334